Regional Weather Roundup
Issued by NWS

Home | Current Version | Previous Version | Graphics & Text | Print | Product List | Glossary On
Versions: 1 2 3 4 5 6 7 8 9 10 11 12 13 14 15 16 17 18 19 20 21 22 23 24 25 26 27 28 29 30 31 32 33 34 35 36 37 38 39 40 41 42 43 44 45 46 47 48 49 50
000
ASUS43 KBIS 220159
RWRND

NORTH DAKOTA REGIONAL WEATHER ROUNDUP
NATIONAL WEATHER SERVICE BISMARCK ND
900 PM CDT SUN SEP 21 2014

NOTE: "FAIR" INDICATES FEW OR NO CLOUDS BELOW 12,000 FEET WITH NO
SIGNIFICANT WEATHER AND/OR OBSTRUCTIONS TO VISIBILITY.


NDZ001>003-009>011-017-220300-
NORTHWEST NORTH DAKOTA

CITY           SKY/WX    TMP DP  RH WIND       PRES   REMARKS
WILLISTON      CLEAR     51  38  60 CALM      30.17S
MINOT          CLEAR     59  42  53 SW6       30.18R
$$

NDZ018>021-031>035-040>046-220300-
SOUTHWEST NORTH DAKOTA

CITY           SKY/WX    TMP DP  RH WIND       PRES   REMARKS
BISMARCK       CLEAR     58  44  60 E3        30.22R
GARRISON         N/A     56  44  64 CALM      30.20R
HETTINGER ARPT CLEAR     56  36  47 SE5       30.23S
$$

NDZ004>008-012>016-024-026-027-054-220300-
NORTHEAST NORTH DAKOTA

CITY           SKY/WX    TMP DP  RH WIND       PRES   REMARKS
GRAND FORKS    CLEAR     51  48  89 S6        30.18S
GRND FRKS AFB  CLEAR     52  50  95 SW6       30.19S
DEVILS LAKE    CLEAR     54  46  76 CALM      30.18S
$$

NDZ022-023-025-028>030-036>039-047>053-220300-
SOUTHEAST NORTH DAKOTA

CITY           SKY/WX    TMP DP  RH WIND       PRES   REMARKS
FARGO          CLEAR     54  50  86 SE6       30.21S
$$



USA.gov is the U.S. government's official web portal to all federal, state and local government web resources and services.